Previsão horária em Jundiaí

Hoje, 23 Junho, Quarta-feira

Tempo Temperatura Precipitação Vento Pressão Humidade
00:00 +16°C° 0 mm 3 m/s 703 mmHg 84%
01:00 +16°C° 0 mm 3 m/s 703 mmHg 85%
02:00 +14°C° 0 mm 3 m/s 702 mmHg 87%
03:00 +15°C° 0 mm 2 m/s 702 mmHg 88%
04:00 +14°C° 0 mm 2 m/s 702 mmHg 90%
05:00 +14°C° 0 mm 2 m/s 702 mmHg 93%
06:00 +13°C° 0 mm 2 m/s 702 mmHg 95%
07:00 +13°C° 0 mm 3 m/s 702 mmHg 89%
08:00 +14°C° 0 mm 4 m/s 703 mmHg 83%
09:00 +15°C° 0 mm 4 m/s 703 mmHg 76%
10:00 +18°C° 0 mm 4 m/s 703 mmHg 68%
11:00 +20°C° 0 mm 4 m/s 703 mmHg 59%
12:00 +22°C° 0 mm 4 m/s 703 mmHg 51%
13:00 +22°C° 0 mm 4 m/s 703 mmHg 50%
14:00 +22°C° 0 mm 4 m/s 702 mmHg 48%
15:00 +22°C° 0 mm 4 m/s 702 mmHg 47%
16:00 +20°C° 0 mm 4 m/s 702 mmHg 58%
17:00 +18°C° 0 mm 4 m/s 701 mmHg 69%
18:00 +15°C° 0 mm 4 m/s 701 mmHg 80%
19:00 +14°C° 0 mm 4 m/s 702 mmHg 85%
20:00 +14°C° 0 mm 3 m/s 702 mmHg 90%
21:00 +13°C° 0 mm 3 m/s 702 mmHg 95%
22:00 +13°C° 0 mm 3 m/s 702 mmHg 94%
23:00 +13°C° 0 mm 3 m/s 702 mmHg 93%

Amanhã, 24 Junho, Quinta-feira

Tempo Temperatura Precipitação Vento Pressão Humidade
00:00 +13°C° 0 mm 3 m/s 702 mmHg 92%
01:00 +12°C° 0 mm 3 m/s 701 mmHg 92%
02:00 +12°C° 0 mm 3 m/s 701 mmHg 93%
03:00 +12°C° 0 mm 3 m/s 700 mmHg 93%
04:00 +13°C° 0 mm 2 m/s 700 mmHg 94%
05:00 +12°C° 0 mm 2 m/s 699 mmHg 95%
06:00 +12°C° 0 mm 2 m/s 699 mmHg 96%
07:00 +14°C° 0 mm 2 m/s 700 mmHg 86%
08:00 +16°C° 0 mm 1 m/s 700 mmHg 76%
09:00 +18°C° 0 mm 1 m/s 701 mmHg 67%
10:00 +20°C° 0 mm 2 m/s 701 mmHg 59%
11:00 +23°C° 0 mm 2 m/s 701 mmHg 51%
12:00 +25°C° 0 mm 2 m/s 701 mmHg 43%
13:00 +26°C° 0 mm 2 m/s 701 mmHg 42%
14:00 +26°C° 0 mm 2 m/s 700 mmHg 41%
15:00 +27°C° 0 mm 2 m/s 700 mmHg 39%
16:00 +25°C° 0 mm 2 m/s 700 mmHg 46%
17:00 +23°C° 0 mm 1 m/s 700 mmHg 53%
18:00 +19°C° 0 mm 0 m/s 699 mmHg 59%
19:00 +20°C° 0 mm 1 m/s 699 mmHg 61%
20:00 +20°C° 0 mm 1 m/s 700 mmHg 62%
21:00 +19°C° 0 mm 1 m/s 700 mmHg 64%
22:00 +19°C° 0 mm 1 m/s 700 mmHg 65%
23:00 +18°C° 0 mm 1 m/s 700 mmHg 67%

Depois de amanhã, 25 Junho, Sexta-feira

Tempo Temperatura Precipitação Vento Pressão Humidade
00:00 +18°C° 0 mm 1 m/s 699 mmHg 69%
01:00 +18°C° 0 mm 1 m/s 699 mmHg 69%
02:00 +18°C° 0 mm 1 m/s 699 mmHg 69%
03:00 +18°C° 0 mm 1 m/s 699 mmHg 69%
04:00 +18°C° 0 mm 1 m/s 699 mmHg 68%
05:00 +18°C° 0 mm 1 m/s 699 mmHg 68%
06:00 +18°C° 0 mm 1 m/s 699 mmHg 67%
07:00 +19°C° 0 mm 1 m/s 700 mmHg 62%
08:00 +19°C° 0 mm 0 m/s 701 mmHg 56%
09:00 +21°C° 0 mm 0 m/s 701 mmHg 51%
10:00 +23°C° 0 mm 0 m/s 701 mmHg 46%
11:00 +27°C° 0 mm 1 m/s 701 mmHg 40%
12:00 +29°C° 0 mm 1 m/s 702 mmHg 35%
13:00 +30°C° 0 mm 1 m/s 701 mmHg 34%
14:00 +30°C° 0 mm 1 m/s 701 mmHg 34%
15:00 +30°C° 0 mm 1 m/s 700 mmHg 33%
16:00 +28°C° 0 mm 1 m/s 700 mmHg 40%
17:00 +25°C° 0 mm 1 m/s 700 mmHg 47%
18:00 +23°C° 0 mm 1 m/s 700 mmHg 54%
19:00 +22°C° 0 mm 1 m/s 700 mmHg 57%
20:00 +21°C° 0 mm 1 m/s 700 mmHg 61%
21:00 +20°C° 0 mm 2 m/s 700 mmHg 64%
22:00 +19°C° 0 mm 2 m/s 700 mmHg 67%
23:00 +19°C° 0 mm 2 m/s 700 mmHg 69%

26 Junho, Sábado

Tempo Temperatura Precipitação Vento Pressão Humidade
00:00 +18°C° 0 mm 2 m/s 700 mmHg 71%
01:00 +18°C° 0 mm 2 m/s 700 mmHg 73%
02:00 +18°C° 0 mm 2 m/s 699 mmHg 74%
03:00 +18°C° 0 mm 1 m/s 699 mmHg 76%
04:00 +18°C° 0 mm 1 m/s 699 mmHg 76%
05:00 +18°C° 0 mm 1 m/s 699 mmHg 76%
06:00 +16°C° 0 mm 1 m/s 700 mmHg 76%
07:00 +20°C° 0 mm 1 m/s 700 mmHg 68%
08:00 +22°C° 0 mm 1 m/s 701 mmHg 60%
09:00 +24°C° 0 mm 1 m/s 701 mmHg 52%
10:00 +26°C° 0 mm 1 m/s 701 mmHg 45%
11:00 +28°C° 0 mm 2 m/s 701 mmHg 38%
12:00 +30°C° 0 mm 2 m/s 701 mmHg 31%
13:00 +31°C° 0 mm 2 m/s 701 mmHg 29%
14:00 +31°C° 0 mm 1 m/s 700 mmHg 28%
15:00 +31°C° 0 mm 1 m/s 700 mmHg 26%
16:00 +29°C° 0 mm 1 m/s 699 mmHg 32%
17:00 +26°C° 0 mm 1 m/s 699 mmHg 38%
18:00 +24°C° 0 mm 1 m/s 699 mmHg 44%
19:00 +23°C° 0 mm 1 m/s 699 mmHg 48%
20:00 +22°C° 0 mm 1 m/s 700 mmHg 52%
21:00 +21°C° 0 mm 1 m/s 700 mmHg 56%
22:00 +21°C° 0 mm 1 m/s 700 mmHg 58%
23:00 +20°C° 0 mm 1 m/s 700 mmHg 59%

27 Junho, Domingo

Tempo Temperatura Precipitação Vento Pressão Humidade
00:00 +20°C° 0 mm 1 m/s 700 mmHg 61%
01:00 +19°C° 0 mm 1 m/s 700 mmHg 62%
02:00 +19°C° 0 mm 1 m/s 699 mmHg 64%
03:00 +18°C° 0 mm 1 m/s 699 mmHg 65%
04:00 +18°C° 0 mm 1 m/s 699 mmHg 67%
05:00 +16°C° 0 mm 1 m/s 699 mmHg 68%
06:00 +16°C° 0 mm 1 m/s 700 mmHg 70%
07:00 +19°C° 0 mm 1 m/s 700 mmHg 63%
08:00 +21°C° 0 mm 1 m/s 701 mmHg 56%
09:00 +23°C° 0 mm 1 m/s 701 mmHg 49%
10:00 +25°C° 0 mm 2 m/s 701 mmHg 42%
11:00 +27°C° 0 mm 3 m/s 701 mmHg 36%
12:00 +29°C° 0 mm 3 m/s 701 mmHg 29%
13:00 +29°C° 0 mm 3 m/s 700 mmHg 28%
14:00 +30°C° 0 mm 3 m/s 700 mmHg 26%
15:00 +30°C° 0 mm 3 m/s 700 mmHg 25%
16:00 +27°C° 0 mm 2 m/s 699 mmHg 30%
17:00 +25°C° 0 mm 1 m/s 699 mmHg 35%
18:00 +21°C° 0 mm 0 m/s 699 mmHg 40%
19:00 +20°C° 0 mm 0 m/s 700 mmHg 42%
20:00 +21°C° 0 mm 1 m/s 700 mmHg 44%
21:00 +20°C° 0 mm 1 m/s 701 mmHg 46%
22:00 +18°C° 0 mm 2 m/s 701 mmHg 57%
23:00 +17°C° 0 mm 2 m/s 701 mmHg 69%

28 Junho, Segunda-feira

Tempo Temperatura Precipitação Vento Pressão Humidade
00:00 +16°C° 0 mm 3 m/s 701 mmHg 80%
01:00 +17°C° 0 mm 3 m/s 702 mmHg 81%
02:00 +17°C° 0 mm 4 m/s 702 mmHg 83%
03:00 +17°C° 0 mm 4 m/s 702 mmHg 84%
04:00 +17°C° 0 mm 4 m/s 702 mmHg 83%
05:00 +17°C° 0 mm 4 m/s 703 mmHg 83%
06:00 +17°C° 0 mm 4 m/s 703 mmHg 82%
07:00 +17°C° 0 mm 4 m/s 703 mmHg 83%
08:00 +16°C° 0 mm 5 m/s 704 mmHg 83%
09:00 +16°C° 0 mm 5 m/s 704 mmHg 84%
10:00 +17°C° 0 mm 5 m/s 705 mmHg 81%
11:00 +17°C° 0 mm 5 m/s 705 mmHg 79%
12:00 +19°C° 0 mm 5 m/s 705 mmHg 76%
13:00 +17°C° 0 mm 5 m/s 705 mmHg 79%
14:00 +17°C° 0 mm 5 m/s 705 mmHg 81%
15:00 +17°C° 0 mm 5 m/s 704 mmHg 84%
16:00 +16°C° 0 mm 5 m/s 705 mmHg 85%
17:00 +16°C° 0 mm 5 m/s 705 mmHg 87%
18:00 +15°C° 0 mm 5 m/s 705 mmHg 88%
19:00 +15°C° 0 mm 5 m/s 705 mmHg 89%
20:00 +15°C° 0 mm 5 m/s 706 mmHg 89%
21:00 +15°C° 0 mm 6 m/s 706 mmHg 90%
22:00 +15°C° 0 mm 5 m/s 706 mmHg 89%
23:00 +15°C° 0 mm 5 m/s 706 mmHg 88%
Mostrar mais

Necessitamos do seu Consentimento

A Meteoprog e os seus Fornecedores de Serviços podem armazenar e aceder a dados pessoais como cookies, identificadores do dispositivo ou outras tecnologias semelhantes existentes no seu dispositivo e processar estes dados para personalizar conteúdos e anúncios, assim como funcionalidades nas redes sociais e análise de tráfego.

  • Armazenar e/ou aceder a informações no seu dispositivo

    Os cookies, identificadores do dispositivo ou outras informações podem ser armazenados ou acedidos no seu dispositivo, para os fins acima indicados.

  • Anúncios e conteúdos personalizados, medição de anúncios e conteúdos, dados sobre o público-alvo e desenvolvimento de produtos

    Os anúncios e os conteúdos podem ser personalizados com base num perfil. Podem ser adicionados dados adicionais para uma maior personalização dos anúncios e dos conteúdos. A eficácia dos anúncios e dos conteúdos pode ser medida. Podem ser obtidas informações sobre o público que visualizou os anúncios e os conteúdos. Estes dados podem ser usados para desenvolver ou melhorar sistemas, softwares ou a experiência do utilizador.

Ao clicar em "Eu concordo”, permitirá o uso de cookies, identificadores do dispositivo e web beacons mencionados ou outras tecnologias semelhantes. As configurações do navegador do seu dispositivo podem ser alteradas.

Para certos fins, podem ser invocados interesses legítimos ao invés de consentimento. Pode ler mais informação sobre este assunto na nossa Política de Privacidade e Cookies.